INTELSAT 33E DEB, 64410

Orbit data source: Space-Track

INTELSAT 33E DEB, 64410 is space debris in GEO originally from a launch on Wed, 24 Aug 2016 UTC launched from the French Guiana (FRGUI). Debris objects in space refer to the collection of defunct objects orbiting the Earth. Examples of debris include non-operational satellites, rocket bodies, and fragments generated from explosions, collisions, or faulty payload assembly.

Not visible in the next 10 days
Identifier
64410, 2016-053AQ
Orbit
GEO
Country
Flag of USUS / ITSO
Related business
Manufacturer
Boeing/ES
Mission
Spacecraft
Bus & Motor
Unknown
Mass
Unknown
Launch date (UTC)
2016-08-24 (10 years ago)
Launch vehicle
Unknown
Launch site
French Guiana (FRGUI)
Object type
Payload
Rocket body
Debris
Shape & HBR
Unknown shape, 1.1 m
Radar Cross Section
RCS unknown

Expand to show TLE details & history
Last TLE update: 18 hours ago

TLE from 18 hours ago
0 INTELSAT 33E DEB
1 64410U 16053AQ  26165.95076336  .00000040  00000-0  00000+0 0  9992
2 64410   1.4494  70.7827 0069511   3.4742 355.5229  1.00009739  5861
Epoch: 2026-06-14T22:49Z
TLE epoch observation values (Epoch: 2026-06-14T22:49:05.954Z)
Latitude
Longitude
-175.80186°
Altitude
35,565.51 km
Speed
3.094 km/s
True Right ascension
04h 38m 52s
True Declination
0° 00' 00"
Sunlit
Object was in daylight at epoch
Visualization orbit readout
Latitude
Unknown
Longitude
Unknown
Altitude
Unknown
Speed
Unknown
Apparent Right ascension
Unknown
Apparent Declination
Unknown
Sunlit
N/A
Visualization observer readout
Local Sidereal Time
03:54:15
Azimuth
Unknown
Elevation
Unknown
Doppler factor
Unknown
Orbital elements
Apogee altitude
36,154.894 km
Perigee altitude
35,567.674 km
Semi-major axis
42,239.421 km
Eccentricity
0.00695
Inclination
1.4494°
RAAN
70.7827°
Arg. of periapsis
3.4742°
True anomaly
355.46018°
Mean anomaly
355.5229°
Eccentric anomaly
355.49159°
Mean motion
0.25002 °/min
Orbital period
1,439.91 mins
BSTAR
0
Loading maneuver chart data...
Computing Atmospheric mass density...
Loading historical data...
Loading historical data...
Loading historical data...
Loading historical data...
Loading historical data...
Loading historical data...
Loading historical data...

Documentation

Showing up to 5 results
|